Theta_e
306 308 308 307 306 309 309 311 312 316 317 317 317 316 316 313 309 307 305 304 304 302
298 300 303 304 304 305 304 304 304 305 312 314 315 313 314 313 309 308 306 305 304 304
297 297 298 299 300 300 300 300 299 299 300 302 307 311 311 311 311 308 307 305 304 303
295 296 296 297 298 298 298 298 298 297 297 299 299 300 304 306 307 306 306 306 303 302
294 295 295 295 296 296 296 296 296 296 295 296 298 298 299 301 303 303 302 303 303 303
292 292 293 293 293 293 294 293 293 293 293 294 296 299 301 301 301 301 302 302 300 301
288 289 290 290 290 290 290 290 290 291 291 292 292 295 298 299 299 299 300 300 300 299
287 287 286 286 285 286 286 288 288 287 288 288 289 292 293 294 295 295 296 296 296 296
284 284 284 284 284 284 284 285 285 285 285 286 289 292 294 294 292 291 291 292 292 291
283 283 283 283 283 284 284 283 284 283 284 285 285 290 292 292 290 290 290 290 289 287
282 282 282 281 281 282 283 282 282 283 282 282 283 289 290 290 288 288 288 288 288 288
281 280 280 280 280 281 281 281 281 281 280 279 280 286 288 288 285 286 286 286 286 286
280 278 278 279 279 278 278 280 279 279 278 277 277 283 287 287 285 285 285 284 284 284
278 277 277 277 275 277 277 276 275 278 277 276 276 277 285 287 285 284 284 284 282 282
Wind_Speed
5 3 4 4 4 5 5 6 7 9 9 8 7 9 9 8 11 12 13 15 14 10
4 4 5 6 5 4 4 4 6 7 9 10 10 8 9 8 9 11 12 14 14 13
7 6 5 5 6 6 5 4 6 6 7 7 10 11 10 10 9 9 9 9 13 12
7 7 6 5 5 6 5 6 7 7 7 8 8 8 11 13 12 13 12 11 11 14
6 6 5 6 6 6 7 6 7 7 7 8 9 10 11 13 13 14 15 15 15 15
12 13 12 10 8 6 6 6 6 6 7 8 10 10 12 16 14 14 15 14 13 15
8 8 8 9 10 9 8 7 6 6 7 7 8 10 12 12 14 14 13 13 13 12
6 6 7 8 8 8 7 8 7 8 7 7 7 7 10 11 13 13 13 12 11 12
6 6 6 6 7 7 7 7 6 7 7 9 7 12 15 16 11 10 11 12 9 8
9 10 10 9 10 10 9 8 8 7 7 9 8 15 17 18 11 10 9 9 8 6
9 11 10 9 9 9 8 9 9 9 8 9 7 15 16 15 9 9 9 8 8 9
9 11 11 11 10 9 9 8 8 6 8 8 8 15 15 11 5 8 9 7 8 9
9 9 10 10 10 5 7 9 7 8 6 7 8 14 14 11 4 7 6 4 6 11
8 8 9 8 3 7 8 7 6 9 6 7 6 7 14 13 5 5 6 5 4 3
Wind_Direction
297 270 256 226 215 227 224 226 230 236 240 236 231 217 217 214 210 210 217 223 223 227
323 297 278 272 249 245 244 245 235 227 235 241 242 232 222 218 215 214 217 223 223 226
330 318 313 293 276 262 264 248 245 243 235 236 243 248 243 246 237 221 222 219 224 225
354 343 326 296 287 268 264 241 240 235 232 234 233 229 237 243 243 241 241 233 225 228
337 342 345 328 312 300 279 271 252 248 241 238 234 228 225 237 238 241 244 243 244 246
357 354 349 341 330 316 298 282 276 256 247 242 239 246 249 252 248 243 242 239 233 235
346 338 333 330 332 330 321 301 290 271 261 254 250 241 249 251 254 255 249 243 239 233
319 316 319 323 321 316 316 311 299 294 282 263 255 251 247 248 252 253 253 247 241 240
327 321 315 314 315 307 303 298 294 293 286 289 276 268 257 265 256 251 249 251 242 234
332 331 330 325 324 322 320 313 307 302 295 292 284 285 277 267 258 254 249 249 249 239
331 325 320 318 314 313 311 310 311 310 306 300 292 294 295 287 268 259 250 241 242 250
323 318 319 316 315 308 303 310 304 297 300 299 299 301 302 299 263 262 263 249 242 242
302 297 302 303 308 294 295 294 297 297 280 277 289 305 307 303 267 273 275 246 249 245
291 282 281 285 269 295 297 289 294 294 290 290 274 286 302 301 285 268 274 253 254 243